OBJECT A, 55009

Orbit data source: Space-Track

You're viewing an Uncataloged Satellite

Recently launched and/or uncataloged satellites may have evolving metadata. Metadata may include but not limited to: Owner, Maufacturer, Bus, Motor, and Mission.

OBJECT A, 55009 is a satellite in SSO that was launched on Tue, 03 Jan 2023 UTC via an FALCON 9 launch vehicle from the Air Force Eastern Test Range (AFETR). Unknown objects in Earth's orbit typically refer to objects detected orbiting the Earth but have not yet been identified or cataloged. These objects could be anything from previously untracked satellites, spent rocket stages, debris from satellite collisions, or even natural meteoroids temporarily captured by Earth's gravity.

Loading next visibility...
Identifier
55009, 2023-001A
Orbit
SSO
Last TLE update
8 hours ago
Origin
Flag of TBDScanway Space (TBD)
Manufacturer
German Orb Sys
Mission
Operational Commercial Imaging
Bus & Motor
CUBESAT 6U, Unknown motor
Mass
10 kg wet, ~10 kg dry
Launch date (UTC)
2023-01-03 (2 years ago)
Launch vehicle
FALCON 9
Launch site
Air Force Eastern Test Range (AFETR)
Object type
Unknown
Shape & HBR
Box + 2 Pan, 0.3 m
Radar Cross Section
0.080 m², Medium (>0.1 m² and < 1m²)

Expand to show TLE details & history

TLE from 8 hours ago
0 OBJECT A
1 55009U 23001A   25182.87154628  .00007763  00000-0  25403-3 0  9994
2 55009  97.3683 242.6568 0005463 299.4596  60.6100 15.31954528138415
Epoch: 2025-07-01T20:55Z
TLE epoch observation values (Epoch: 2025-07-01T20:55:01.598Z)
Latitude
-0.00006°
Longitude
8.73937°
Altitude
471.254 km
Speed
7.631 km/s
True Right ascension
16h 10m 37s
True Declination
0° 00' 00"
Sunlit
Object was in full shadow at epoch
Visualization orbit readout
Latitude
-18.24086°
Longitude
11.49°
Altitude
474.458 km
Speed
7.629 km/s
Apparent Right ascension
16h 20m 32s
Apparent Declination
-75° 26' 11"
Sunlit
Object is in full shadow
Visualization observer readout
Local Sidereal Time
16:21:59
Azimuth
180.1° SSW
Elevation
-25.353°
Doppler factor
1
Orbital elements
Apogee altitude
470.669 km
Perigee altitude
463.19 km
Semi-major axis
6,845.067 km
Eccentricity
0.00055
Inclination
97.3683°
RAAN
242.6568°
Arg. of periapsis
299.4596°
True anomaly
Unknown
Mean anomaly
60.61°
Eccentric anomaly
Unknown
Mean motion
3.83245 °/min
Orbital period
93.93 mins
BSTAR
0.00025403
Loading maneuver chart data...
Loading SW <> Apogee altitude chart data...
Loading historical data...
Loading historical data...
Loading historical data...
Loading historical data...
Loading historical data...
Loading historical data...
Loading historical data...

OBJECT A Visibility forecast

Observer location: undefined°, undefined°

Span
Click to sort rows by Start time (UTC) header in descending order
Start Az.
Max El. time (UTC)
Max El. Az.
Max El.
End time (UTC)
End Az.
4 mins2025-07-02 04:53:32.461Z227.243° WSW2025-07-02 04:55:32.461Z267.635° W17.57°2025-07-02 04:57:32.461Z306.302° NW
5 mins2025-07-02 16:18:32.461Z47.752° ENE2025-07-02 16:20:32.461Z98.304° ESE25.479°2025-07-02 16:23:32.461Z158.254° S
6 mins2025-07-03 04:23:32.461Z189.353° SSW2025-07-03 04:26:32.461Z263.985° W34.774°2025-07-03 04:29:32.461Z333.087° NNW
|